• In Hungary
  • List of Countries
  • For 7 days
  • Water Temperature
  • Satellite Maps
  • Weather Map
  • News
  • Weather Widgets
  • user-avatar
    Login

    Hourly Weather San Antonio

    Today, 20 October, Friday

    Time Temperature Precipitation Wind Pressure Humidity
    00:00 +22°C° 0 mm 3 mps 744 mmHg 86%
    01:00 +22°C° 0 mm 3 mps 744 mmHg 88%
    02:00 +22°C° 0 mm 3 mps 744 mmHg 89%
    03:00 +22°C° 0.1 mm 3 mps 744 mmHg 91%
    04:00 +22°C° 0.1 mm 3 mps 744 mmHg 93%
    05:00 +22°C° 0.1 mm 3 mps 744 mmHg 95%
    06:00 +22°C° 0 mm 3 mps 744 mmHg 92%
    07:00 +24°C° 0 mm 3 mps 744 mmHg 89%
    08:00 +25°C° 0 mm 3 mps 744 mmHg 86%
    09:00 +26°C° 0.1 mm 3 mps 744 mmHg 79%
    10:00 +28°C° 0.1 mm 3 mps 743 mmHg 72%
    11:00 +29°C° 0.1 mm 3 mps 743 mmHg 64%
    12:00 +30°C° 0 mm 3 mps 742 mmHg 59%
    13:00 +32°C° 0 mm 4 mps 742 mmHg 53%
    14:00 +32°C° 0 mm 4 mps 741 mmHg 48%
    15:00 +30°C° 0 mm 3 mps 741 mmHg 50%
    16:00 +29°C° 0 mm 3 mps 741 mmHg 52%
    17:00 +28°C° 0 mm 3 mps 741 mmHg 54%
    18:00 +28°C° 0 mm 3 mps 741 mmHg 57%
    19:00 +27°C° 0 mm 3 mps 741 mmHg 60%
    20:00 +26°C° 0 mm 4 mps 742 mmHg 63%
    21:00 +25°C° 0 mm 4 mps 742 mmHg 70%
    22:00 +25°C° 0 mm 4 mps 742 mmHg 77%
    23:00 +23°C° 0 mm 4 mps 742 mmHg 84%

    Tomorrow, 21 October, Saturday

    Time Temperature Precipitation Wind Pressure Humidity
    00:00 +24°C° 0 mm 3 mps 742 mmHg 87%
    01:00 +24°C° 0 mm 3 mps 741 mmHg 91%
    02:00 +22°C° 0 mm 3 mps 741 mmHg 95%
    03:00 +24°C° 0 mm 3 mps 741 mmHg 95%
    04:00 +24°C° 0 mm 3 mps 741 mmHg 95%
    05:00 +24°C° 0 mm 3 mps 741 mmHg 96%
    06:00 +25°C° 0 mm 3 mps 741 mmHg 92%
    07:00 +25°C° 0 mm 4 mps 742 mmHg 88%
    08:00 +26°C° 0 mm 4 mps 743 mmHg 84%
    09:00 +28°C° 0 mm 5 mps 742 mmHg 74%
    10:00 +30°C° 0 mm 5 mps 742 mmHg 65%
    11:00 +32°C° 0 mm 5 mps 742 mmHg 55%
    12:00 +33°C° 0 mm 5 mps 742 mmHg 52%
    13:00 +34°C° 0 mm 5 mps 741 mmHg 49%
    14:00 +34°C° 0 mm 5 mps 740 mmHg 45%
    15:00 +33°C° 0 mm 5 mps 740 mmHg 51%
    16:00 +32°C° 0 mm 5 mps 740 mmHg 56%
    17:00 +30°C° 0 mm 4 mps 740 mmHg 61%
    18:00 +29°C° 0 mm 4 mps 741 mmHg 67%
    19:00 +28°C° 0 mm 4 mps 741 mmHg 73%
    20:00 +27°C° 0 mm 5 mps 742 mmHg 79%
    21:00 +27°C° 0.1 mm 4 mps 742 mmHg 83%
    22:00 +26°C° 0.1 mm 4 mps 742 mmHg 87%
    23:00 +26°C° 0.1 mm 4 mps 743 mmHg 91%

    Day after tomorrow, 22 October, Sunday

    Time Temperature Precipitation Wind Pressure Humidity
    00:00 +26°C° 1.3 mm 4 mps 743 mmHg 92%
    01:00 +25°C° 1.3 mm 3 mps 743 mmHg 93%
    02:00 +25°C° 1.3 mm 3 mps 743 mmHg 94%
    03:00 +25°C° 1.7 mm 3 mps 743 mmHg 93%
    04:00 +25°C° 1.7 mm 2 mps 743 mmHg 91%
    05:00 +25°C° 1.7 mm 2 mps 744 mmHg 90%
    06:00 +25°C° 0 mm 4 mps 745 mmHg 83%
    07:00 +25°C° 0 mm 5 mps 746 mmHg 75%
    08:00 +26°C° 0 mm 7 mps 747 mmHg 68%
    09:00 +27°C° 0 mm 7 mps 747 mmHg 61%
    10:00 +27°C° 0 mm 7 mps 747 mmHg 53%
    11:00 +28°C° 0 mm 7 mps 747 mmHg 46%
    12:00 +28°C° 0 mm 7 mps 747 mmHg 41%
    13:00 +29°C° 0 mm 7 mps 746 mmHg 36%
    14:00 +29°C° 0 mm 8 mps 746 mmHg 32%
    15:00 +28°C° 0 mm 7 mps 746 mmHg 33%
    16:00 +26°C° 0 mm 6 mps 747 mmHg 34%
    17:00 +25°C° 0 mm 5 mps 747 mmHg 35%
    18:00 +23°C° 0 mm 5 mps 748 mmHg 35%
    19:00 +22°C° 0 mm 5 mps 748 mmHg 35%
    20:00 +21°C° 0 mm 4 mps 749 mmHg 36%
    21:00 +20°C° 0 mm 4 mps 749 mmHg 36%
    22:00 +19°C° 0 mm 4 mps 749 mmHg 36%
    23:00 +19°C° 0 mm 4 mps 749 mmHg 37%

    23 October, Monday

    Time Temperature Precipitation Wind Pressure Humidity
    00:00 +18°C° 0 mm 3 mps 749 mmHg 38%
    01:00 +18°C° 0 mm 3 mps 749 mmHg 38%
    02:00 +17°C° 0 mm 3 mps 749 mmHg 39%
    03:00 +17°C° 0 mm 2 mps 749 mmHg 39%
    04:00 +17°C° 0 mm 2 mps 749 mmHg 39%
    05:00 +17°C° 0 mm 2 mps 749 mmHg 39%
    06:00 +18°C° 0 mm 2 mps 749 mmHg 37%
    07:00 +20°C° 0 mm 2 mps 750 mmHg 35%
    08:00 +23°C° 0 mm 2 mps 750 mmHg 34%
    09:00 +25°C° 0 mm 3 mps 750 mmHg 30%
    10:00 +27°C° 0 mm 3 mps 749 mmHg 26%
    11:00 +29°C° 0 mm 3 mps 749 mmHg 22%
    12:00 +29°C° 0 mm 3 mps 748 mmHg 21%
    13:00 +30°C° 0 mm 3 mps 747 mmHg 21%
    14:00 +31°C° 0 mm 3 mps 746 mmHg 20%
    15:00 +29°C° 0 mm 2 mps 746 mmHg 24%
    16:00 +27°C° 0 mm 2 mps 746 mmHg 28%
    17:00 +26°C° 0 mm 2 mps 746 mmHg 32%
    18:00 +25°C° 0 mm 1 mps 746 mmHg 33%
    19:00 +24°C° 0 mm 1 mps 746 mmHg 35%
    20:00 +23°C° 0 mm 1 mps 747 mmHg 36%
    21:00 +23°C° 0 mm 2 mps 747 mmHg 36%
    22:00 +23°C° 0 mm 2 mps 747 mmHg 36%
    23:00 +21°C° 0 mm 2 mps 747 mmHg 36%

    24 October, Tuesday

    Time Temperature Precipitation Wind Pressure Humidity
    00:00 +21°C° 0 mm 2 mps 747 mmHg 36%
    01:00 +21°C° 0 mm 3 mps 747 mmHg 36%
    02:00 +21°C° 0 mm 3 mps 747 mmHg 36%
    03:00 +20°C° 0 mm 3 mps 747 mmHg 37%
    04:00 +20°C° 0 mm 3 mps 747 mmHg 38%
    05:00 +20°C° 0 mm 4 mps 747 mmHg 39%
    06:00 +20°C° 0 mm 5 mps 748 mmHg 41%
    07:00 +21°C° 0 mm 6 mps 749 mmHg 43%
    08:00 +22°C° 0 mm 7 mps 750 mmHg 44%
    09:00 +23°C° 0 mm 7 mps 750 mmHg 41%
    10:00 +24°C° 0 mm 7 mps 749 mmHg 38%
    11:00 +27°C° 0 mm 8 mps 749 mmHg 35%
    12:00 +27°C° 0 mm 7 mps 749 mmHg 35%
    13:00 +27°C° 0 mm 7 mps 749 mmHg 34%
    14:00 +27°C° 0 mm 7 mps 748 mmHg 33%
    15:00 +26°C° 0 mm 6 mps 748 mmHg 37%
    16:00 +25°C° 0 mm 4 mps 749 mmHg 40%
    17:00 +22°C° 0 mm 3 mps 749 mmHg 44%
    18:00 +22°C° 0 mm 3 mps 749 mmHg 45%
    19:00 +21°C° 0 mm 3 mps 750 mmHg 46%
    20:00 +20°C° 0 mm 3 mps 750 mmHg 47%
    21:00 +20°C° 0 mm 3 mps 750 mmHg 45%
    22:00 +19°C° 0 mm 3 mps 751 mmHg 43%
    23:00 +18°C° 0 mm 3 mps 751 mmHg 41%

    25 October, Wednesday

    Time Temperature Precipitation Wind Pressure Humidity
    00:00 +18°C° 0 mm 3 mps 750 mmHg 40%
    01:00 +17°C° 0 mm 3 mps 750 mmHg 39%
    02:00 +17°C° 0 mm 2 mps 750 mmHg 38%
    03:00 +16°C° 0 mm 2 mps 750 mmHg 38%
    04:00 +16°C° 0 mm 1 mps 750 mmHg 38%
    05:00 +16°C° 0 mm 1 mps 750 mmHg 38%
    06:00 +18°C° 0 mm 1 mps 750 mmHg 36%
    07:00 +20°C° 0 mm 1 mps 751 mmHg 34%
    08:00 +19°C° 0 mm 0 mps 751 mmHg 31%
    09:00 +23°C° 0 mm 1 mps 750 mmHg 29%
    10:00 +24°C° 0 mm 1 mps 750 mmHg 27%
    11:00 +26°C° 0 mm 2 mps 749 mmHg 25%
    12:00 +26°C° 0 mm 2 mps 748 mmHg 25%
    13:00 +27°C° 0 mm 3 mps 747 mmHg 25%
    14:00 +27°C° 0 mm 3 mps 746 mmHg 25%
    15:00 +26°C° 0 mm 3 mps 746 mmHg 28%
    16:00 +25°C° 0 mm 3 mps 746 mmHg 32%
    17:00 +22°C° 0 mm 3 mps 745 mmHg 35%
    18:00 +21°C° 0 mm 3 mps 745 mmHg 36%
    19:00 +21°C° 0 mm 3 mps 745 mmHg 36%
    20:00 +20°C° 0 mm 3 mps 745 mmHg 37%
    21:00 +19°C° 0 mm 3 mps 745 mmHg 37%
    22:00 +19°C° 0 mm 4 mps 744 mmHg 38%
    23:00 +18°C° 0 mm 4 mps 744 mmHg 38%
    Show more